• En España
  • Lista de países
  • Para 7 días
  • Temperatura del agua
  • Mapa Satelital
  • El tiempo en el mapa
  • Informadores
  • user-avatar
    Iniciar sesión

    Tiempo cada hora Koltakovo

    Hoy, 19 Abril, Jueves

    Tiempo Temperatura Precipitaciones Viento Presión Humedad
    00:00 +6°C° 0,3 mm 4 mps 736 mmHg 94%
    01:00 +6°C° 0,3 mm 4 mps 736 mmHg 94%
    02:00 +7°C° 0 mm 3 mps 736 mmHg 93%
    03:00 +7°C° 0,5 mm 3 mps 736 mmHg 93%
    04:00 +6°C° 0,5 mm 4 mps 736 mmHg 94%
    05:00 +5°C° 0,5 mm 4 mps 736 mmHg 94%
    06:00 +5°C° 0,7 mm 4 mps 736 mmHg 93%
    07:00 +5°C° 0,7 mm 4 mps 737 mmHg 93%
    08:00 +5°C° 0,7 mm 4 mps 737 mmHg 93%
    09:00 +6°C° 0,6 mm 4 mps 737 mmHg 92%
    10:00 +6°C° 0,6 mm 4 mps 737 mmHg 91%
    11:00 +6°C° 0,6 mm 4 mps 737 mmHg 90%
    12:00 +7°C° 0,2 mm 4 mps 737 mmHg 88%
    13:00 +8°C° 0,2 mm 4 mps 737 mmHg 85%
    14:00 +8°C° 0,2 mm 4 mps 737 mmHg 83%
    15:00 +10°C° 0 mm 4 mps 738 mmHg 79%
    16:00 +10°C° 0 mm 4 mps 738 mmHg 75%
    17:00 +11°C° 0 mm 4 mps 738 mmHg 71%
    18:00 +10°C° 0 mm 4 mps 739 mmHg 74%
    19:00 +9°C° 0 mm 3 mps 739 mmHg 77%
    20:00 +7°C° 0 mm 3 mps 739 mmHg 81%
    21:00 +7°C° 0 mm 3 mps 740 mmHg 83%
    22:00 +5°C° 0 mm 3 mps 740 mmHg 85%
    23:00 +5°C° 0 mm 3 mps 740 mmHg 87%

    Mañana, 20 Abril, Viernes

    Tiempo Temperatura Precipitaciones Viento Presión Humedad
    00:00 +5°C° 0 mm 3 mps 741 mmHg 90%
    01:00 +4°C° 0 mm 3 mps 741 mmHg 93%
    02:00 +4°C° 0 mm 3 mps 741 mmHg 95%
    03:00 +4°C° 0 mm 3 mps 741 mmHg 95%
    04:00 +4°C° 0 mm 3 mps 742 mmHg 95%
    05:00 +4°C° 0 mm 3 mps 742 mmHg 95%
    06:00 +4°C° 0 mm 3 mps 742 mmHg 92%
    07:00 +5°C° 0 mm 3 mps 742 mmHg 90%
    08:00 +5°C° 0 mm 3 mps 743 mmHg 88%
    09:00 +7°C° 0 mm 3 mps 743 mmHg 81%
    10:00 +9°C° 0 mm 3 mps 743 mmHg 74%
    11:00 +10°C° 0 mm 2 mps 743 mmHg 67%
    12:00 +10°C° 0 mm 2 mps 743 mmHg 64%
    13:00 +12°C° 0 mm 2 mps 742 mmHg 61%
    14:00 +12°C° 0 mm 2 mps 742 mmHg 58%
    15:00 +12°C° 0 mm 2 mps 742 mmHg 60%
    16:00 +12°C° 0 mm 2 mps 741 mmHg 61%
    17:00 +12°C° 0 mm 2 mps 741 mmHg 62%
    18:00 +10°C° 0 mm 2 mps 740 mmHg 69%
    19:00 +8°C° 0 mm 2 mps 740 mmHg 76%
    20:00 +7°C° 0 mm 2 mps 739 mmHg 82%
    21:00 +7°C° 0 mm 3 mps 738 mmHg 82%
    22:00 +7°C° 0 mm 3 mps 737 mmHg 81%
    23:00 +7°C° 0 mm 4 mps 736 mmHg 80%

    Pasado mañana, 21 Abril, Sábado

    Tiempo Temperatura Precipitaciones Viento Presión Humedad
    00:00 +7°C° 0 mm 4 mps 735 mmHg 81%
    01:00 +7°C° 0 mm 4 mps 734 mmHg 82%
    02:00 +8°C° 0 mm 4 mps 733 mmHg 83%
    03:00 +8°C° 0 mm 5 mps 732 mmHg 85%
    04:00 +8°C° 0 mm 5 mps 732 mmHg 88%
    05:00 +8°C° 0 mm 5 mps 731 mmHg 90%
    06:00 +8°C° 0,2 mm 5 mps 730 mmHg 87%
    07:00 +9°C° 0,2 mm 5 mps 729 mmHg 84%
    08:00 +9°C° 0,2 mm 6 mps 727 mmHg 81%
    09:00 +10°C° 0,2 mm 6 mps 727 mmHg 82%
    10:00 +10°C° 0,2 mm 6 mps 726 mmHg 82%
    11:00 +10°C° 0,2 mm 6 mps 725 mmHg 83%
    12:00 +10°C° 0,3 mm 7 mps 725 mmHg 79%
    13:00 +9°C° 0,3 mm 7 mps 725 mmHg 75%
    14:00 +7°C° 0,3 mm 8 mps 725 mmHg 71%
    15:00 +7°C° 0 mm 8 mps 725 mmHg 68%
    16:00 +7°C° 0 mm 8 mps 726 mmHg 66%
    17:00 +7°C° 0 mm 8 mps 726 mmHg 63%
    18:00 +6°C° 0 mm 7 mps 727 mmHg 67%
    19:00 +5°C° 0 mm 6 mps 727 mmHg 72%
    20:00 +5°C° 0 mm 5 mps 728 mmHg 76%
    21:00 +5°C° 0 mm 5 mps 728 mmHg 78%
    22:00 +3°C° 0 mm 5 mps 728 mmHg 79%
    23:00 +3°C° 0 mm 5 mps 729 mmHg 80%

    22 Abril, Domingo

    Tiempo Temperatura Precipitaciones Viento Presión Humedad
    00:00 +3°C° 0 mm 5 mps 729 mmHg 82%
    01:00 +3°C° 0 mm 4 mps 729 mmHg 83%
    02:00 +3°C° 0 mm 4 mps 730 mmHg 84%
    03:00 +1°C° 0 mm 4 mps 730 mmHg 85%
    04:00 +1°C° 0 mm 4 mps 730 mmHg 85%
    05:00 +2°C° 0 mm 3 mps 731 mmHg 86%
    06:00 +2°C° 0,1 mm 3 mps 731 mmHg 82%
    07:00 +3°C° 0,1 mm 3 mps 731 mmHg 78%
    08:00 +4°C° 0,1 mm 3 mps 731 mmHg 73%
    09:00 +4°C° 0,1 mm 3 mps 731 mmHg 71%
    10:00 +5°C° 0,1 mm 3 mps 732 mmHg 68%
    11:00 +7°C° 0,1 mm 3 mps 732 mmHg 65%
    12:00 +7°C° 0,2 mm 3 mps 732 mmHg 66%
    13:00 +7°C° 0,2 mm 3 mps 732 mmHg 66%
    14:00 +6°C° 0,2 mm 4 mps 732 mmHg 66%
    15:00 +7°C° 0,1 mm 3 mps 732 mmHg 66%
    16:00 +7°C° 0,1 mm 3 mps 733 mmHg 66%
    17:00 +7°C° 0,1 mm 3 mps 733 mmHg 66%
    18:00 +5°C° 0 mm 2 mps 733 mmHg 70%
    19:00 +4°C° 0 mm 2 mps 734 mmHg 73%
    20:00 +3°C° 0 mm 2 mps 734 mmHg 77%
    21:00 +2°C° 0 mm 2 mps 734 mmHg 78%
    22:00 +3°C° 0 mm 1 mps 735 mmHg 78%
    23:00 +2°C° 0 mm 1 mps 735 mmHg 79%

    23 Abril, Lunes

    Tiempo Temperatura Precipitaciones Viento Presión Humedad
    00:00 +1°C° 0 mm 1 mps 735 mmHg 79%
    01:00 +1°C° 0 mm 1 mps 736 mmHg 79%
    02:00 0°C° 0 mm 1 mps 736 mmHg 79%
    03:00 0°C° 0 mm 1 mps 736 mmHg 79%
    04:00 0°C° 0 mm 1 mps 736 mmHg 79%
    05:00 0°C° 0 mm 1 mps 737 mmHg 78%
    06:00 +2°C° 0 mm 1 mps 737 mmHg 69%
    07:00 +3°C° 0 mm 1 mps 737 mmHg 60%
    08:00 +5°C° 0 mm 1 mps 738 mmHg 50%
    09:00 +7°C° 0 mm 1 mps 738 mmHg 45%
    10:00 +8°C° 0 mm 1 mps 738 mmHg 41%
    11:00 +10°C° 0 mm 1 mps 738 mmHg 36%
    12:00 +10°C° 0 mm 1 mps 738 mmHg 35%
    13:00 +11°C° 0 mm 1 mps 738 mmHg 33%
    14:00 +11°C° 0 mm 1 mps 737 mmHg 32%
    15:00 +10°C° 0 mm 1 mps 737 mmHg 33%
    16:00 +10°C° 0 mm 1 mps 737 mmHg 34%
    17:00 +8°C° 0 mm 0 mps 737 mmHg 35%
    18:00 +8°C° 0 mm 1 mps 737 mmHg 41%
    19:00 +6°C° 0 mm 1 mps 737 mmHg 46%
    20:00 +4°C° 0 mm 1 mps 737 mmHg 52%
    21:00 +4°C° 0 mm 1 mps 736 mmHg 56%
    22:00 +3°C° 0 mm 1 mps 736 mmHg 59%
    23:00 +1°C° 0 mm 2 mps 736 mmHg 63%

    24 Abril, Martes

    Tiempo Temperatura Precipitaciones Viento Presión Humedad
    00:00 +1°C° 0 mm 2 mps 736 mmHg 65%
    01:00 +1°C° 0 mm 2 mps 736 mmHg 68%
    02:00 -1°C° 0 mm 2 mps 736 mmHg 70%
    03:00 -1°C° 0 mm 2 mps 735 mmHg 72%
    04:00 -1°C° 0 mm 2 mps 735 mmHg 74%
    05:00 -1°C° 0 mm 2 mps 735 mmHg 75%
    06:00 +2°C° 0 mm 2 mps 735 mmHg 70%
    07:00 +3°C° 0 mm 3 mps 734 mmHg 64%
    08:00 +5°C° 0 mm 3 mps 734 mmHg 58%
    09:00 +6°C° 0 mm 4 mps 734 mmHg 56%
    10:00 +8°C° 0 mm 4 mps 734 mmHg 53%
    11:00 +9°C° 0 mm 5 mps 733 mmHg 51%
    12:00 +9°C° 0,1 mm 5 mps 733 mmHg 53%
    13:00 +9°C° 0,1 mm 5 mps 732 mmHg 55%
    14:00 +10°C° 0,1 mm 4 mps 732 mmHg 57%
    15:00 +10°C° 0,3 mm 4 mps 732 mmHg 63%
    16:00 +8°C° 0,3 mm 4 mps 731 mmHg 69%
    17:00 +8°C° 0,3 mm 3 mps 731 mmHg 75%
    18:00 +7°C° 0,6 mm 3 mps 731 mmHg 79%
    19:00 +7°C° 0,6 mm 3 mps 731 mmHg 83%
    20:00 +5°C° 0,6 mm 3 mps 730 mmHg 87%
    21:00 +5°C° 0,8 mm 3 mps 730 mmHg 88%
    22:00 +4°C° 0,8 mm 3 mps 730 mmHg 89%
    23:00 +4°C° 0,8 mm 3 mps 729 mmHg 91%
    Mostrar más